Location: Newark
(48.5667°N, 12.8167°E)
Time: 21:25:55
(UTC+00:00)

CAS-4B - Pass Details

Date: 21 November 2019
Orbit: 528 x 546 km, 43.0° (Epoch: 07 December)

Event Time Altitude Azimuth Distance (km) Brightness Sun altitude
Rises 05:11:08 0° 220° (SW) 2,680 ? -12.1°
Reaches altitude 10° 05:13:49 10° 203° (SSW) 1,788 ? -11.7°
Maximum altitude 05:16:49 20° 156° (SSE) 1,278 ? -11.2°
Drops below altitude 10° 05:19:49 10° 108° (ESE) 1,785 ? -10.7°
Sets 05:22:29 0° 92° (E) 2,674 ? -10.3°
